Theta_e
307 312 316 318 322 323 323 331 335 335 336 333 334 334 337 341 346 347 337 339 342 342 341 340 340 340 339 338 338 338 338 339 339 338 337 335 333 332 331 330 328 326 323 330 335 336 330 329 334
311 318 316 320 322 324 328 331 332 333 331 329 331 331 336 338 338 336 336 340 342 344 344 342 339 339 340 340 339 337 336 335 335 335 335 334 333 332 331 329 322 320 323 329 328 329 331 330 329
311 318 318 321 322 322 329 331 334 330 329 330 330 334 336 336 334 333 335 340 343 346 343 339 339 340 340 342 340 338 335 333 333 334 335 335 335 333 328 322 321 322 323 324 325 325 325 325 326
317 317 317 319 321 326 327 332 330 330 332 331 330 335 333 334 332 331 334 337 338 342 338 340 341 342 342 342 342 341 339 337 334 332 332 331 329 325 323 322 319 316 314 316 319 321 322 323 323
318 318 319 322 326 328 330 329 329 330 330 329 328 335 338 335 330 330 331 332 333 337 334 336 337 337 337 337 336 336 335 332 328 326 324 323 323 322 321 320 315 311 312 313 314 316 315 315 316
317 318 320 322 327 328 328 327 328 330 328 326 328 333 337 334 331 329 328 328 330 334 332 328 327 326 325 326 327 327 326 325 324 323 323 323 323 322 321 319 316 312 311 312 312 311 311 310 311
318 319 320 325 327 327 328 327 324 323 325 325 326 333 333 333 332 328 326 325 329 331 330 331 324 321 321 322 323 323 323 322 322 321 321 321 321 322 320 317 313 312 312 313 313 311 310 309 307
318 319 320 326 325 324 322 322 322 322 324 323 324 329 331 333 331 327 325 324 327 331 331 332 331 333 333 324 322 322 320 320 320 323 324 327 329 328 325 323 320 318 312 315 316 316 313 312 312
318 318 324 322 321 319 318 317 318 318 322 322 325 326 331 331 330 327 325 324 326 329 331 331 331 331 333 330 322 326 320 325 329 330 329 330 330 330 328 325 325 324 323 322 321 320 320 319 319
318 320 319 318 318 317 316 317 316 317 320 320 322 328 333 332 331 328 326 325 326 330 330 333 332 331 327 327 328 329 328 331 331 331 330 331 329 328 327 328 327 326 326 323 324 322 321 322 321
318 318 317 316 316 317 316 316 316 317 317 318 320 322 332 332 331 328 326 325 328 330 331 335 334 332 330 326 328 328 329 327 330 331 330 329 327 328 328 326 326 324 324 324 322 323 321 322 320
318 317 317 316 316 316 315 316 315 316 318 318 320 322 331 330 329 329 328 326 327 329 330 336 335 332 330 330 328 328 327 326 327 327 329 327 327 325 324 322 320 319 318 319 320 320 320 319 318
318 317 317 316 316 317 317 317 317 317 318 318 320 325 329 330 330 329 329 328 327 330 330 333 334 331 331 325 329 329 327 328 324 326 326 325 325 324 322 320 318 318 318 318 318 318 318 318 315
318 317 317 317 318 318 317 318 319 319 318 317 320 324 327 330 330 330 329 328 328 329 331 334 335 331 327 327 329 330 328 325 324 323 321 323 323 322 321 319 320 319 318 318 317 318 319 319 318
319 318 319 319 320 319 318 320 318 319 319 318 318 320 323 327 328 328 328 328 328 327 328 336 337 331 325 325 327 327 322 320 321 321 321 321 321 321 321 321 320 320 319 318 318 319 318 318 319
318 320 320 320 321 321 320 321 320 320 319 319 319 319 320 325 326 327 327 327 326 328 328 331 334 328 324 325 324 323 323 322 322 321 320 321 321 320 319 319 319 319 319 319 319 319 319 319 318
320 320 321 322 321 322 321 322 321 321 321 321 321 321 320 321 325 325 326 326 327 326 327 332 330 325 323 324 323 323 322 322 319 318 318 317 317 317 317 317 317 317 317 318 319 319 319 320 319
320 320 319 318 321 318 319 320 321 321 321 322 321 321 322 321 323 325 324 325 326 326 326 329 330 323 321 323 324 320 320 319 318 316 316 316 316 316 315 315 315 315 316 316 316 317 316 315 316
319 319 319 321 321 319 320 321 321 322 322 322 322 322 323 327 328 326 325 325 325 326 325 327 325 323 322 323 319 317 316 315 316 315 314 312 313 313 312 312 312 311 312 312 312 311 312 312 314
319 319 320 321 320 319 322 321 321 321 322 322 322 324 326 326 324 324 324 325 327 326 325 324 321 318 317 317 316 315 315 315 314 314 312 312 311 310 310 309 309 310 309 309 310 311 310 309 309
321 321 324 322 322 321 321 322 321 321 321 321 322 322 323 322 323 323 324 323 322 321 320 318 317 315 314 314 314 313 313 312 312 313 313 312 312 311 308 307 307 307 307 307 307 308 308 310 308
323 322 321 321 321 322 321 322 322 321 321 321 321 322 321 320 320 321 322 321 320 318 317 316 315 313 313 312 313 312 313 313 314 314 312 311 309 308 306 306 306 305 306 305 307 306 306 307 308
324 322 321 322 322 322 322 324 325 322 321 321 321 321 321 321 321 320 320 319 319 318 317 316 315 314 313 312 311 312 313 313 311 309 309 307 307 305 304 304 303 304 303 304 305 305 304 306 305
322 324 324 324 325 333 323 325 327 323 322 321 321 321 321 320 320 319 318 318 318 317 316 315 314 313 313 312 312 311 308 308 308 308 307 304 303 303 303 302 302 303 303 303 304 304 304 302 302
322 325 332 335 338 334 326 323 327 323 322 321 321 321 321 321 321 320 319 318 317 316 316 315 315 314 313 312 310 309 309 308 307 305 304 302 302 302 301 302 301 302 301 301 300 299 302 301 300
324 323 334 332 335 329 322 320 323 321 320 319 319 319 319 320 320 319 318 317 317 316 316 316 315 314 313 312 311 309 307 305 305 303 301 301 301 301 300 301 300 300 299 298 298 298 299 298 298
324 324 320 326 328 329 320 324 322 320 319 319 318 318 319 319 319 318 317 317 317 316 315 315 314 314 313 312 309 306 305 304 303 301 300 300 301 301 300 299 299 298 298 298 297 297 296 296 296
322 320 325 329 331 326 321 321 325 322 320 318 318 318 318 319 318 318 317 316 316 315 315 315 314 313 312 308 305 304 304 304 302 301 301 301 300 298 299 299 298 298 297 296 295 295 295 295 295
323 324 321 319 324 326 326 320 319 320 318 318 318 318 318 318 318 317 316 315 315 314 314 313 311 310 308 306 304 304 303 302 301 301 300 299 298 297 297 296 295 295 295 295 293 292 292 293 292
320 321 320 329 324 330 329 322 319 319 320 318 318 318 318 318 316 316 315 313 312 312 311 311 309 309 307 305 304 303 302 301 300 300 298 296 296 296 295 295 294 294 294 293 293 293 293 293 293
Wind_Speed
10 6 7 8 4 6 13 6 15 9 8 12 15 12 18 18 11 8 17 14 23 19 17 14 15 13 12 11 11 11 11 10 9 8 7 6 6 6 7 10 12 13 13 13 13 13 14 13 9
8 10 7 4 6 11 4 9 13 16 14 9 10 4 17 17 16 16 17 19 24 23 19 15 15 13 12 11 11 11 10 9 8 7 6 6 4 6 7 10 11 12 12 12 10 10 9 10 10
10 6 3 4 7 14 8 12 14 12 8 8 4 15 15 13 17 16 18 17 28 23 17 16 15 12 11 10 10 9 10 9 8 7 6 5 6 6 8 9 10 10 11 12 12 11 11 10 10
8 6 5 8 14 11 16 16 15 9 3 5 12 11 13 19 21 19 18 18 18 20 19 16 16 14 11 10 10 9 8 7 6 6 5 6 5 6 7 9 9 9 11 11 11 11 11 11 11
11 4 8 10 7 12 14 14 9 6 3 7 3 17 18 23 21 18 17 18 21 17 15 15 14 13 10 8 7 6 6 6 6 6 5 6 6 6 7 7 8 9 10 10 11 10 10 10 10
6 3 7 12 11 12 11 7 3 16 8 9 6 15 15 20 18 17 16 18 19 19 12 13 12 11 9 8 6 6 6 7 7 7 6 5 5 7 7 7 7 9 10 10 9 9 9 9 9
9 6 14 10 8 9 9 5 2 1 5 5 7 15 12 17 17 16 16 17 18 16 15 12 10 10 8 7 7 7 6 5 6 5 6 6 6 9 8 6 9 10 9 9 10 10 9 9 9
10 9 14 8 8 10 9 3 6 3 15 11 4 5 13 20 16 16 16 15 16 15 14 14 8 8 7 9 8 6 6 6 8 7 9 7 6 9 8 8 12 13 11 12 11 12 12 10 7
16 13 8 8 10 10 10 6 2 7 9 4 4 8 21 24 18 16 17 14 14 14 11 13 12 10 9 8 8 9 9 8 9 6 9 5 6 5 3 10 10 10 11 14 9 11 14 10 8
9 8 10 9 10 11 9 8 8 6 10 4 5 9 25 21 18 15 14 14 16 14 11 11 11 8 6 9 7 6 6 7 6 4 4 6 5 2 6 9 9 9 11 12 8 14 12 9 12
9 3 9 9 7 4 9 4 5 6 7 10 11 9 17 19 15 14 14 16 16 15 13 15 10 8 3 8 5 7 8 5 3 4 2 3 5 4 9 12 11 12 13 7 14 13 13 10 18
3 9 7 11 2 1 7 3 4 7 7 10 12 13 16 12 13 14 13 17 16 17 18 17 13 9 5 4 3 4 4 5 2 3 2 3 5 5 7 7 10 10 12 12 10 11 12 15 12
7 5 8 8 6 1 6 3 5 6 9 4 5 12 13 12 14 13 13 16 17 18 22 19 17 13 8 7 4 2 3 4 2 2 1 2 3 5 6 8 10 11 11 11 10 13 14 13 15
8 8 9 9 6 4 4 6 4 7 9 9 6 8 12 13 16 17 14 12 18 19 22 24 20 15 11 6 7 4 4 2 2 1 3 4 4 6 7 10 12 13 13 12 15 18 18 16 15
7 9 7 7 8 5 5 8 11 10 5 9 9 8 9 13 14 17 15 16 14 16 18 22 17 16 12 9 6 3 6 2 0 1 1 2 4 7 9 10 12 13 15 14 18 19 18 20 20
9 10 10 12 9 6 7 12 15 10 10 8 10 11 10 11 14 16 18 15 18 14 8 4 31 18 12 11 8 4 4 1 4 5 2 5 2 7 9 12 16 17 19 19 20 22 23 22 21
9 10 9 9 7 1 8 5 11 8 4 8 9 10 7 7 13 16 17 12 12 16 5 13 24 14 12 12 6 3 1 3 7 8 6 6 7 8 9 14 18 20 22 23 24 25 25 22 21
10 11 6 4 9 6 10 9 9 4 6 10 11 10 11 10 6 18 18 14 7 4 1 5 12 10 9 13 2 3 4 4 4 8 7 11 13 10 13 17 19 20 21 21 22 23 25 27 28
10 7 7 14 7 3 9 8 10 6 5 5 5 7 7 16 23 24 18 13 9 9 2 12 18 10 6 5 4 8 10 11 10 10 10 13 13 13 17 21 19 20 22 21 22 25 27 27 26
6 5 6 6 5 5 8 10 11 6 9 10 9 9 14 14 14 16 14 13 16 16 23 17 16 10 9 7 9 8 8 5 8 11 16 15 19 22 25 21 18 16 18 21 23 24 27 28 28
3 6 9 8 7 8 10 6 14 11 10 11 13 14 14 12 12 11 17 18 18 20 19 20 17 14 12 10 10 9 8 9 10 13 17 21 28 25 19 17 18 18 16 19 23 24 23 20 25
3 6 5 8 7 7 13 3 13 14 12 12 12 11 10 9 10 12 18 16 18 19 19 16 12 10 8 8 3 3 1 3 8 10 20 21 13 16 15 18 19 20 17 19 22 20 22 21 21
6 5 6 8 9 10 10 6 13 16 14 13 10 9 9 10 11 11 14 15 15 13 12 8 6 5 2 1 1 2 9 14 15 11 12 14 12 17 19 18 19 19 21 22 24 20 21 15 12
6 9 9 8 9 3 11 2 6 2 12 12 9 7 7 7 8 9 12 14 12 10 7 5 5 2 5 6 4 10 9 9 12 13 12 16 17 18 18 20 21 18 18 20 21 14 15 14 10
8 8 4 2 2 3 5 2 10 11 12 12 8 10 8 6 6 4 7 10 7 5 3 5 12 15 12 7 6 7 7 10 12 14 15 18 18 16 20 19 19 17 18 17 15 14 11 10 10
5 6 3 3 4 2 4 3 8 14 11 10 9 5 5 6 4 5 6 4 5 7 9 9 9 14 16 10 8 8 10 13 14 15 16 15 15 17 20 18 19 15 12 12 12 11 11 11 12
7 5 3 1 2 1 5 17 14 11 8 9 5 0 3 4 5 3 5 7 1 4 8 7 8 10 15 8 7 9 11 13 13 11 11 14 13 13 18 20 19 18 16 14 14 14 16 17 20
5 1 2 3 2 3 8 5 7 4 6 5 7 6 6 4 3 4 9 11 13 17 19 17 13 9 10 11 10 9 16 10 10 12 15 10 15 19 19 17 18 20 18 16 19 20 18 19 18
0 2 2 3 1 2 3 2 4 7 5 5 5 6 7 7 6 1 14 21 22 24 18 12 12 12 14 12 12 14 13 12 13 13 12 15 16 18 19 20 20 20 20 20 18 20 17 16 19
3 5 3 1 1 2 1 6 7 8 11 6 7 7 10 12 13 14 18 19 19 17 19 18 17 13 13 13 14 17 15 15 17 14 15 16 16 15 17 19 20 20 20 20 19 20 18 20 19
Wind_Direction
279 286 289 264 249 233 257 113 98 103 70 49 43 45 70 50 35 88 94 109 110 109 107 119 117 108 100 99 93 90 93 95 96 96 93 82 57 50 24 14 14 15 15 14 15 8 356 351 335
270 279 257 286 249 259 174 103 89 72 80 84 65 22 71 68 84 110 114 122 109 111 108 111 120 115 102 100 97 94 100 99 93 93 87 82 58 25 13 12 13 19 22 26 23 13 359 354 349
262 269 257 229 231 252 129 112 97 101 126 113 101 45 36 102 76 94 112 110 120 110 110 112 114 115 109 96 92 94 95 92 92 91 82 61 36 23 16 20 29 34 37 36 29 28 21 10 356
231 214 257 248 256 53 108 99 107 119 80 343 108 98 70 58 96 106 117 119 108 95 103 111 115 113 109 102 95 90 86 84 85 78 66 46 38 37 38 38 40 38 35 29 26 21 17 11 5
251 267 251 230 76 84 86 98 126 117 159 133 318 104 93 90 106 115 114 110 106 99 111 111 109 111 112 106 98 90 83 78 70 68 55 53 46 39 29 25 29 31 32 25 19 12 6 357 352
248 237 263 257 105 100 94 112 172 161 134 80 122 105 86 107 116 114 117 118 106 114 107 115 117 113 107 99 94 100 92 84 77 65 54 52 38 25 19 23 26 26 26 22 15 6 359 348 342
252 271 284 102 134 121 102 51 272 76 79 115 115 111 116 128 118 127 124 122 124 124 120 108 102 96 93 98 103 97 99 92 81 62 52 40 39 26 31 29 32 16 11 6 2 359 352 348 343
235 265 268 183 178 127 93 226 72 68 63 74 322 156 147 120 138 129 129 138 132 131 120 128 96 85 116 89 90 94 95 80 68 58 38 43 62 37 27 29 359 355 356 359 355 357 354 345 340
259 262 163 139 177 120 131 186 54 10 92 103 44 28 131 135 146 151 146 149 138 136 135 128 120 119 144 100 89 94 93 85 77 70 35 23 41 6 48 330 335 354 359 353 355 358 353 350 339
256 302 112 62 44 141 156 200 133 181 131 146 120 106 127 142 159 156 160 163 149 139 157 120 125 126 133 130 110 128 77 92 83 73 1 42 30 323 324 314 327 339 337 349 344 337 336 330 336
258 64 87 82 26 78 155 131 111 221 172 165 166 162 141 150 171 169 177 168 159 164 166 138 135 144 172 112 160 146 135 102 157 140 44 50 344 9 1 351 341 342 326 349 338 325 327 303 311
193 101 109 88 64 4 132 140 164 274 66 121 160 161 148 167 176 186 188 169 176 173 160 149 152 146 156 143 108 102 107 94 98 21 59 9 8 358 358 348 331 329 329 316 309 309 304 306 298
103 102 90 118 159 138 47 149 256 209 113 82 107 143 153 169 177 188 201 174 183 178 168 167 160 153 153 132 109 114 105 129 46 57 37 9 27 2 357 349 342 332 322 319 323 320 313 312 312
138 140 142 161 140 157 205 172 208 211 143 163 174 176 167 172 188 178 191 196 189 182 172 166 159 159 154 136 143 149 150 53 83 101 35 10 349 347 351 341 333 323 319 319 315 298 288 288 279
149 164 171 176 152 161 222 256 205 132 184 182 179 202 213 180 187 164 177 193 198 201 206 153 141 162 144 138 147 167 131 113 318 315 321 304 319 321 325 315 307 306 308 305 305 298 296 291 284
195 233 201 156 165 175 209 271 181 145 174 208 204 202 216 194 178 163 161 188 211 208 214 339 161 145 126 134 145 171 127 85 259 249 285 256 268 317 310 313 310 310 308 305 299 295 295 295 293
211 229 197 149 188 72 226 280 129 160 226 250 251 194 188 231 165 157 148 176 203 219 230 175 118 130 131 135 173 179 220 291 329 336 341 15 2 331 339 320 308 304 305 301 298 294 290 288 300
334 226 153 212 146 205 269 250 103 27 248 237 235 252 185 179 190 154 162 176 167 265 289 24 115 120 135 144 142 309 248 269 349 13 1 4 345 347 332 311 307 308 303 300 302 307 308 304 298
328 8 332 100 99 314 266 283 73 346 127 82 60 38 51 62 59 59 58 51 58 35 0 91 110 103 138 136 116 35 18 10 9 353 14 353 334 341 334 317 318 322 320 317 318 315 306 300 300
316 339 291 64 70 275 241 226 105 78 45 62 92 77 74 72 69 66 68 59 58 58 87 91 94 90 54 91 59 46 15 358 350 9 4 355 353 343 325 306 314 318 330 332 324 327 324 316 311
154 346 18 339 326 270 281 197 132 116 101 83 61 65 79 81 84 84 73 65 66 59 70 78 78 68 68 66 67 40 18 5 0 342 327 308 305 310 308 317 327 330 326 324 316 312 313 325 317
346 37 317 283 275 271 185 273 139 149 122 97 79 71 77 83 89 91 88 80 74 65 68 73 76 75 60 82 153 110 132 272 290 311 305 310 313 320 339 336 333 331 325 324 313 317 319 317 313
44 334 296 286 271 276 263 237 139 155 150 117 90 89 78 49 57 73 82 86 82 79 71 73 89 79 77 326 168 279 324 328 316 333 320 330 357 349 340 330 326 327 325 320 312 309 309 316 338
299 258 235 257 249 269 259 332 57 129 95 103 103 87 62 87 91 95 112 109 101 83 59 33 356 291 237 234 286 339 341 330 331 328 356 3 351 337 325 328 326 323 324 322 320 335 327 338 328
335 326 260 236 167 237 37 297 92 110 66 102 97 89 74 36 37 91 94 81 71 49 11 324 338 333 326 284 315 311 322 346 1 11 8 354 336 335 331 326 324 320 317 317 326 335 347 349 348
345 317 38 329 352 1 188 282 106 105 104 96 95 86 141 119 115 70 55 16 31 357 331 335 338 323 325 333 336 351 15 16 9 3 348 334 334 330 322 337 331 330 336 333 331 326 332 322 319
3 40 353 176 348 297 262 101 101 120 123 107 97 86 122 135 145 147 266 171 96 325 324 338 301 306 302 337 26 38 24 358 341 333 322 317 320 337 335 329 334 338 340 344 341 328 315 314 308
45 6 327 19 330 323 349 25 114 182 112 85 59 19 19 103 29 19 355 6 10 11 7 358 352 346 356 358 3 348 337 323 322 320 309 338 343 340 330 334 339 330 326 323 324 320 316 315 310
93 62 31 325 17 292 333 51 43 87 72 18 359 351 32 40 54 350 22 21 16 8 353 4 21 13 355 348 341 326 315 320 316 322 359 359 343 330 326 323 317 314 310 310 314 310 308 302 302
3 19 7 349 29 105 19 278 69 60 30 28 11 10 26 37 28 19 17 14 14 8 2 1 352 332 327 331 326 321 319 328 331 339 342 338 326 322 322 317 314 308 308 311 308 304 299 292 292